• In Deutschland
  • Länderverzeichnis
  • Für 7 Tage
  • Wassertemperatur
  • Satellitenkarten
  • Wetterkarte
  • Widgets
  • user-avatar
    Anmelden

    Stündliche Wetter Benguela

    Heute, 23 Juli, Sonntag

    Zeit Temperatur Niederschläge Wind Luftdruck Luftfeuchtigkeit
    00:00 +21°C° 0 mm 2 m/S 761 mmHg 91%
    01:00 +21°C° 0 mm 2 m/S 761 mmHg 91%
    02:00 +21°C° 0 mm 2 m/S 761 mmHg 91%
    03:00 +21°C° 0 mm 2 m/S 761 mmHg 91%
    04:00 +22°C° 0 mm 1 m/S 761 mmHg 91%
    05:00 +21°C° 0 mm 2 m/S 761 mmHg 89%
    06:00 +21°C° 0 mm 2 m/S 761 mmHg 88%
    07:00 +21°C° 0 mm 2 m/S 761 mmHg 86%
    08:00 +25°C° 0 mm 2 m/S 761 mmHg 73%
    09:00 +28°C° 0 mm 2 m/S 761 mmHg 61%
    10:00 +31°C° 0 mm 2 m/S 762 mmHg 48%
    11:00 +33°C° 0 mm 3 m/S 761 mmHg 46%
    12:00 +34°C° 0 mm 3 m/S 761 mmHg 45%
    13:00 +34°C° 0 mm 4 m/S 760 mmHg 44%
    14:00 +33°C° 0 mm 4 m/S 760 mmHg 50%
    15:00 +30°C° 0 mm 4 m/S 760 mmHg 56%
    16:00 +29°C° 0 mm 4 m/S 759 mmHg 62%
    17:00 +27°C° 0 mm 3 m/S 760 mmHg 70%
    18:00 +25°C° 0 mm 3 m/S 761 mmHg 79%
    19:00 +23°C° 0 mm 2 m/S 761 mmHg 87%
    20:00 +23°C° 0 mm 2 m/S 762 mmHg 88%
    21:00 +23°C° 0 mm 2 m/S 762 mmHg 89%
    22:00 +23°C° 0 mm 1 m/S 763 mmHg 90%
    23:00 +22°C° 0 mm 1 m/S 763 mmHg 92%

    Morgen, 24 Juli, Montag

    Zeit Temperatur Niederschläge Wind Luftdruck Luftfeuchtigkeit
    00:00 +22°C° 0 mm 1 m/S 762 mmHg 93%
    01:00 +21°C° 0 mm 1 m/S 762 mmHg 95%
    02:00 +20°C° 0 mm 2 m/S 762 mmHg 95%
    03:00 +20°C° 0 mm 2 m/S 762 mmHg 94%
    04:00 +20°C° 0 mm 2 m/S 761 mmHg 94%
    05:00 +20°C° 0 mm 2 m/S 762 mmHg 92%
    06:00 +21°C° 0 mm 2 m/S 762 mmHg 91%
    07:00 +21°C° 0 mm 2 m/S 762 mmHg 89%
    08:00 +25°C° 0 mm 2 m/S 762 mmHg 77%
    09:00 +28°C° 0 mm 2 m/S 763 mmHg 64%
    10:00 +30°C° 0 mm 2 m/S 763 mmHg 52%
    11:00 +31°C° 0 mm 3 m/S 762 mmHg 50%
    12:00 +33°C° 0 mm 3 m/S 761 mmHg 47%
    13:00 +34°C° 0 mm 4 m/S 761 mmHg 45%
    14:00 +31°C° 0 mm 3 m/S 760 mmHg 51%
    15:00 +30°C° 0 mm 3 m/S 760 mmHg 57%
    16:00 +29°C° 0 mm 3 m/S 759 mmHg 63%
    17:00 +27°C° 0 mm 3 m/S 760 mmHg 71%
    18:00 +25°C° 0 mm 3 m/S 761 mmHg 80%
    19:00 +23°C° 0 mm 2 m/S 761 mmHg 88%
    20:00 +23°C° 0 mm 2 m/S 762 mmHg 89%
    21:00 +21°C° 0 mm 2 m/S 762 mmHg 90%
    22:00 +22°C° 0 mm 1 m/S 763 mmHg 90%
    23:00 +22°C° 0 mm 1 m/S 763 mmHg 91%

    übermorgen, 25 Juli, Dienstag

    Zeit Temperatur Niederschläge Wind Luftdruck Luftfeuchtigkeit
    00:00 +22°C° 0 mm 1 m/S 762 mmHg 92%
    01:00 +21°C° 0 mm 1 m/S 762 mmHg 93%
    02:00 +21°C° 0 mm 1 m/S 762 mmHg 94%
    03:00 +21°C° 0 mm 1 m/S 761 mmHg 94%
    04:00 +21°C° 0 mm 1 m/S 761 mmHg 95%
    05:00 +21°C° 0 mm 1 m/S 761 mmHg 94%
    06:00 +21°C° 0 mm 1 m/S 762 mmHg 94%
    07:00 +21°C° 0 mm 1 m/S 762 mmHg 93%
    08:00 +24°C° 0 mm 1 m/S 762 mmHg 81%
    09:00 +26°C° 0 mm 1 m/S 762 mmHg 69%
    10:00 +29°C° 0 mm 1 m/S 762 mmHg 56%
    11:00 +31°C° 0 mm 2 m/S 762 mmHg 50%
    12:00 +33°C° 0 mm 3 m/S 761 mmHg 44%
    13:00 +35°C° 0 mm 3 m/S 760 mmHg 38%
    14:00 +33°C° 0 mm 3 m/S 759 mmHg 44%
    15:00 +31°C° 0 mm 3 m/S 759 mmHg 50%
    16:00 +30°C° 0 mm 3 m/S 758 mmHg 56%
    17:00 +28°C° 0 mm 3 m/S 759 mmHg 65%
    18:00 +26°C° 0 mm 2 m/S 759 mmHg 73%
    19:00 +23°C° 0 mm 2 m/S 760 mmHg 82%
    20:00 +23°C° 0 mm 2 m/S 760 mmHg 84%
    21:00 +23°C° 0 mm 1 m/S 761 mmHg 87%
    22:00 +22°C° 0 mm 1 m/S 761 mmHg 89%
    23:00 +22°C° 0 mm 1 m/S 761 mmHg 89%

    26 Juli, Mittwoch

    Zeit Temperatur Niederschläge Wind Luftdruck Luftfeuchtigkeit
    00:00 +22°C° 0 mm 1 m/S 761 mmHg 89%
    01:00 +22°C° 0 mm 1 m/S 761 mmHg 89%
    02:00 +21°C° 0 mm 1 m/S 760 mmHg 90%
    03:00 +21°C° 0 mm 1 m/S 760 mmHg 91%
    04:00 +21°C° 0 mm 1 m/S 760 mmHg 92%
    05:00 +21°C° 0 mm 1 m/S 760 mmHg 91%
    06:00 +21°C° 0 mm 1 m/S 761 mmHg 90%
    07:00 +21°C° 0 mm 1 m/S 761 mmHg 90%
    08:00 +24°C° 0 mm 2 m/S 761 mmHg 76%
    09:00 +27°C° 0 mm 2 m/S 761 mmHg 63%
    10:00 +30°C° 0 mm 2 m/S 761 mmHg 50%
    11:00 +31°C° 0 mm 3 m/S 760 mmHg 45%
    12:00 +34°C° 0 mm 3 m/S 760 mmHg 41%
    13:00 +35°C° 0 mm 4 m/S 759 mmHg 37%
    14:00 +34°C° 0 mm 3 m/S 758 mmHg 44%
    15:00 +31°C° 0 mm 3 m/S 758 mmHg 50%
    16:00 +30°C° 0 mm 3 m/S 758 mmHg 57%
    17:00 +27°C° 0 mm 2 m/S 758 mmHg 67%
    18:00 +25°C° 0 mm 2 m/S 759 mmHg 77%
    19:00 +23°C° 0 mm 1 m/S 760 mmHg 87%
    20:00 +23°C° 0 mm 1 m/S 760 mmHg 87%
    21:00 +23°C° 0 mm 1 m/S 761 mmHg 88%
    22:00 +23°C° 0 mm 1 m/S 761 mmHg 88%
    23:00 +22°C° 0 mm 1 m/S 761 mmHg 89%

    27 Juli, Donnerstag

    Zeit Temperatur Niederschläge Wind Luftdruck Luftfeuchtigkeit
    00:00 +22°C° 0 mm 1 m/S 761 mmHg 89%
    01:00 +22°C° 0 mm 1 m/S 761 mmHg 90%
    02:00 +22°C° 0 mm 1 m/S 761 mmHg 90%
    03:00 +21°C° 0 mm 1 m/S 760 mmHg 90%
    04:00 +21°C° 0 mm 1 m/S 760 mmHg 90%
    05:00 +21°C° 0 mm 1 m/S 761 mmHg 89%
    06:00 +22°C° 0 mm 1 m/S 761 mmHg 88%
    07:00 +22°C° 0 mm 1 m/S 761 mmHg 87%
    08:00 +25°C° 0 mm 2 m/S 761 mmHg 75%
    09:00 +27°C° 0 mm 2 m/S 761 mmHg 63%
    10:00 +30°C° 0 mm 3 m/S 761 mmHg 51%
    11:00 +31°C° 0 mm 3 m/S 761 mmHg 48%
    12:00 +33°C° 0 mm 3 m/S 760 mmHg 45%
    13:00 +34°C° 0 mm 4 m/S 759 mmHg 42%
    14:00 +33°C° 0 mm 4 m/S 759 mmHg 48%
    15:00 +31°C° 0 mm 3 m/S 758 mmHg 54%
    16:00 +29°C° 0 mm 3 m/S 758 mmHg 60%
    17:00 +27°C° 0 mm 2 m/S 759 mmHg 69%
    18:00 +25°C° 0 mm 2 m/S 760 mmHg 77%
    19:00 +23°C° 0 mm 1 m/S 760 mmHg 86%
    20:00 +23°C° 0 mm 1 m/S 761 mmHg 87%
    21:00 +23°C° 0 mm 1 m/S 761 mmHg 87%
    22:00 +23°C° 0 mm 1 m/S 762 mmHg 88%
    23:00 +23°C° 0 mm 1 m/S 762 mmHg 89%

    28 Juli, Freitag

    Zeit Temperatur Niederschläge Wind Luftdruck Luftfeuchtigkeit
    00:00 +22°C° 0 mm 1 m/S 761 mmHg 89%
    01:00 +22°C° 0 mm 1 m/S 761 mmHg 90%
    02:00 +22°C° 0 mm 1 m/S 761 mmHg 90%
    03:00 +22°C° 0 mm 1 m/S 760 mmHg 90%
    04:00 +22°C° 0 mm 1 m/S 760 mmHg 89%
    05:00 +22°C° 0 mm 1 m/S 760 mmHg 88%
    06:00 +22°C° 0 mm 1 m/S 761 mmHg 87%
    07:00 +22°C° 0 mm 1 m/S 761 mmHg 86%
    08:00 +25°C° 0 mm 1 m/S 761 mmHg 74%
    09:00 +28°C° 0 mm 2 m/S 761 mmHg 62%
    10:00 +31°C° 0 mm 2 m/S 761 mmHg 50%
    11:00 +32°C° 0 mm 2 m/S 760 mmHg 47%
    12:00 +34°C° 0 mm 3 m/S 760 mmHg 45%
    13:00 +35°C° 0 mm 3 m/S 759 mmHg 42%
    14:00 +34°C° 0 mm 3 m/S 759 mmHg 46%
    15:00 +33°C° 0 mm 3 m/S 758 mmHg 51%
    16:00 +30°C° 0 mm 3 m/S 758 mmHg 55%
    17:00 +28°C° 0 mm 3 m/S 759 mmHg 64%
    18:00 +26°C° 0 mm 3 m/S 760 mmHg 73%
    19:00 +24°C° 0 mm 2 m/S 760 mmHg 82%
    20:00 +24°C° 0 mm 2 m/S 761 mmHg 85%
    21:00 +23°C° 0 mm 1 m/S 762 mmHg 88%
    22:00 +23°C° 0 mm 1 m/S 762 mmHg 91%
    23:00 +23°C° 0 mm 1 m/S 762 mmHg 90%
    Mehr zeigen